[[{"header":{"parameterUnit":"m.s-1","parameterCategory":1,"la1":30.2992,"la2":30.254,"lo1":-89.0895,"lo2":-89.0443,"dy":0.0025,"dx":0.0025,"nx":19,"ny":19,"refTime":"2026-04-16T09:00:00:Z","depth":0,"parameterNumber":2,"parameterNumberName":"U-component_of_WINDS"},"data":[0,0,0,0.5165,0.5165,0.5199,0.5199,0.5242,0.5242,0,0,0,0,0,0,0,0,0,0,0,0.5156,0.5156,0.5164,0.5165,0.5198,0.5199,0.5241,0.5242,0,0,0,0,0,0,0,0,0,0,0,0.5156,0.5156,0.5157,0.5165,0.5198,0.5199,0.5241,0.5216,0,0,0,0,0,0,0,0,0,0,0.5184,0.5177,0.5156,0.5157,0.5166,0.5198,0.5199,0.5215,0.5218,0.5227,0,0.5236,0,0.524,0.5245,0.5245,0,0,0,0.5164,0.5175,0.5183,0.5157,0.5166,0.5198,0.5183,0.5216,0.522,0.5231,0.5237,0.5238,0.524,0.5245,0.5245,0.5302,0.5302,0,0,0.5163,0.5163,0.518,0.5185,0.518,0.5182,0.5184,0.5218,0.5225,0.5237,0.5239,0.5241,0.5245,0.5246,0.5302,0.5302,0,0,0,0.5158,0.5161,0.5168,0.5183,0.5189,0.5183,0.5186,0.5223,0.5226,0.524,0.5242,0.5246,0.5246,0.5302,0.5302,0.5316,0,0,0,0.5157,0.5159,0.5167,0.5168,0.5188,0.5207,0.519,0.5223,0.5227,0.5241,0.5246,0.5247,0.5301,0.5302,0.5315,0.5323,0,0,0,0.5153,0.5158,0.5163,0.5168,0.5182,0.5206,0.521,0.5224,0.5228,0.5245,0.5247,0.5301,0.5302,0.5314,0.5321,0.5336,0,0,0,0.515,0.5177,0.5164,0.5194,0.5182,0.5215,0.521,0.5235,0.5251,0.5246,0.5301,0.5302,0.5314,0.532,0.5335,0.5348,0.5354,0,0,0.5183,0.5181,0.5199,0.5188,0.5223,0.521,0.5247,0.5262,0.5264,0.5289,0.5291,0.5315,0.5321,0.5336,0.5388,0.5392,0,0,0,0.5209,0.5222,0.5231,0.5246,0.5258,0.5268,0.5278,0.5283,0.5304,0.5277,0.5325,0.5329,0.5338,0.5344,0.5348,0.5354,0.5305,0.5305,0.5305,0.5257,0.5257,0.5286,0.5289,0.5304,0.5312,0.5324,0.5332,0.5329,0.534,0.5348,0.5379,0.5386,0.5389,0.5396,0.5355,0.5355,0.5355,0.5356,0.5305,0.5323,0.5316,0.5342,0.5341,0.5363,0.5371,0.5368,0.5386,0.5374,0.5382,0.5367,0.5394,0.54,0.5357,0.5356,0.5356,0.5356,0.5356,0.5336,0.5344,0.5349,0.5369,0.5385,0.5387,0.5405,0.5405,0.5404,0.5412,0.5418,0.5418,0.5416,0.5415,0.5415,0.5415,0.5415,0.5416,0.5416,0.5365,0.537,0.5386,0.5399,0.5407,0.5418,0.5425,0.5433,0.5442,0.544,0.544,0.5434,0.5397,0.5387,0.5417,0.5417,0.5417,0.5417,0.5416,0.5412,0.5401,0.5424,0.5432,0.5447,0.5461,0.5459,0.5475,0.5482,0.549,0.5483,0.5456,0.5453,0.545,0.5441,0.5484,0.5484,0.5484,0.5484,0.5437,0.5435,0.5458,0.547,0.5483,0.5483,0.5508,0.5513,0.5517,0.552,0.5514,0.5503,0.55,0.5499,0.5495,0.5487,0.554,0.554,0.554,0.5465,0.5464,0.5486,0.5489,0.5499,0.5508,0.5531,0.5545,0.5547,0.5542,0.5523,0.552,0.5503,0.5497,0.5492,0.5486,0.5471,0,0]},{"header":{"parameterUnit":"m.s-1","parameterCategory":1,"la1":30.2992,"la2":30.254,"lo1":-89.0895,"lo2":-89.0443,"dy":0.0025,"dx":0.0025,"nx":19,"ny":19,"refTime":"2026-04-16T09:00:00:Z","depth":0,"parameterNumber":3,"parameterNumberName":"V-component_of_WINDS"},"data":[0,0,0,5.4726,5.4728,5.4826,5.4827,5.4965,5.4966,0,0,0,0,0,0,0,0,0,0,0,5.4708,5.471,5.4726,5.4729,5.4826,5.4827,5.4964,5.4966,0,0,0,0,0,0,0,0,0,0,0,5.4708,5.4709,5.4711,5.4729,5.4826,5.4827,5.4964,5.4885,0,0,0,0,0,0,0,0,0,0,5.4787,5.4783,5.4709,5.4711,5.473,5.4826,5.4827,5.4881,5.489,5.4927,0,5.4966,0,5.4968,5.4976,5.4977,0,0,0,5.4719,5.4775,5.4792,5.4711,5.4731,5.4826,5.478,5.4885,5.4896,5.4939,5.4968,5.4972,5.4971,5.4977,5.4978,5.5229,5.523,0,0,5.4714,5.4731,5.4785,5.4799,5.4789,5.4777,5.4783,5.4891,5.4923,5.4968,5.4975,5.4973,5.4978,5.4979,5.5227,5.5229,0,0,0,5.4705,5.4728,5.4741,5.4794,5.4811,5.478,5.4787,5.4918,5.4921,5.4977,5.4975,5.4979,5.4981,5.5226,5.5228,5.5324,0,0,0,5.4701,5.4722,5.4739,5.4751,5.4809,5.4866,5.4811,5.4913,5.4925,5.4974,5.4979,5.4983,5.5224,5.5227,5.5317,5.5365,0,0,0,5.4698,5.4722,5.474,5.4752,5.4795,5.4864,5.4873,5.4916,5.4925,5.4977,5.4983,5.5223,5.5226,5.5312,5.5356,5.5434,0,0,0,5.4699,5.4824,5.4742,5.4881,5.4794,5.4924,5.4872,5.4968,5.5024,5.498,5.5224,5.5228,5.531,5.535,5.5428,5.5503,5.5536,0,0,5.4866,5.4845,5.4925,5.4854,5.5004,5.4908,5.507,5.5104,5.5092,5.5183,5.5189,5.5319,5.5355,5.5433,5.572,5.5747,0,0,0,5.4983,5.5041,5.5077,5.5133,5.5163,5.5192,5.52,5.5212,5.5289,5.5144,5.537,5.539,5.5435,5.547,5.5492,5.5529,5.5245,5.5245,5.5245,5.5244,5.5223,5.5353,5.5344,5.5398,5.5405,5.5446,5.5463,5.5425,5.5479,5.5505,5.5682,5.5724,5.574,5.5778,5.5545,5.5545,5.5545,5.5546,5.5484,5.5561,5.5509,5.5616,5.5592,5.5681,5.5691,5.5661,5.5738,5.5661,5.57,5.5616,5.577,5.5802,5.5553,5.5551,5.555,5.555,5.5549,5.565,5.5683,5.5698,5.5775,5.5836,5.5821,5.5897,5.5873,5.585,5.5888,5.5911,5.591,5.5902,5.5902,5.5902,5.5903,5.5903,5.5904,5.5904,5.5816,5.5829,5.5898,5.594,5.5971,5.6009,5.6016,5.6046,5.6071,5.6047,5.6047,5.6002,5.5791,5.5736,5.5914,5.5912,5.5911,5.591,5.5909,5.6064,5.6004,5.611,5.6141,5.6187,5.6248,5.6216,5.6277,5.6298,5.6335,5.6283,5.6131,5.6107,5.6088,5.6043,5.6289,5.6289,5.6289,5.6289,5.6202,5.6188,5.6289,5.6341,5.6388,5.637,5.6486,5.6492,5.6488,5.6499,5.646,5.6399,5.6382,5.6367,5.6343,5.63,5.6606,5.6606,5.6606,5.6352,5.6341,5.6446,5.6444,5.6477,5.6506,5.6613,5.6671,5.6655,5.6618,5.6506,5.6492,5.6393,5.6363,5.6322,5.6285,5.6206,0,0]}]]